Regional Weather Roundup
Issued by NWS Kansas City/Pleasant Hill, MO

Home | Current Version | Previous Version | Text Only | Print | Product List | Glossary On
Versions: 1 2 3 4 5 6 7 8 9 10 11 12 13 14 15 16 17 18 19 20 21 22 23 24 25 26 27
000
ASUS43 KEAX 270310
RWREAX

WEATHER ROUNDUP FOR EASTERN KANSAS AND NORTHWEST MISSOURI
NATIONAL WEATHER SERVICE KANSAS CITY/PLEASANT HILL MO
1000 PM CDT MON SEP 26 2016

KSZ040-057-103>105-MOZ028-029-037-043-270400-
...KANSAS CITY METROPOLITAN AREA...

CITY           SKY/WX    TMP DP  RH WIND       PRES   REMARKS
K.C. INTL      CLEAR     58  46  64 SW6       30.12S
K.C. DOWNTOWN  CLEAR     63  49  60 SW5       30.11F
LEES SUMMIT    CLEAR     59  48  67 SW7       30.13S
OLATHE - IXD   CLEAR     60  48  64 SW9       30.14F
OLATHE - OJC   CLEAR     58  48  69 SW5       30.14S
LAWRENCE       CLEAR     53  52  96 CALM      30.13F

$$

MOZ001>008-011>017-020>025-030>033-038>040-044>046-053-054-270400-
...NORTHERN AND CENTRAL MISSOURI...

CITY           SKY/WX    TMP DP  RH WIND       PRES   REMARKS
ST. JOSEPH     CLEAR     57  51  80 S5        30.10S
MOSBY            N/A     54  50  87 CALM      30.11F
WHITEMAN AFB   CLEAR     56  47  71 SW7       30.12S
CLINTON        CLEAR     50  48  93 CALM      30.14S
SEDALIA        CLEAR     59  45  59 SW7       30.13F
WARSAW         NOT AVBL
CHILLICOTHE      N/A     55  50  83 CALM      30.10F
KIRKSVILLE     CLEAR     57  44  62 SW6       30.08S

$$

MOZ041-047>049-056>058-063>065-088>090-097-270400-
...EASTERN AND SOUTHERN MISSOURI...

CITY           SKY/WX    TMP DP  RH WIND       PRES   REMARKS
ST. LOUIS INTL CLEAR     62  44  51 SW7       30.10S
SPIRIT OF STL  CLEAR     54  51  90 CALM      30.10S
COLUMBIA       CLEAR     59  43  55 SW6       30.11F
JEFFERSON CITY CLEAR     55  50  83 CALM      30.12S
ROLLA          CLEAR     55  44  66 W7        30.13R
OSAGE BEACH    CLEAR     52  50  93 CALM      30.15
SPRINGFIELD    CLEAR     53  45  74 CALM      30.16S
BRANSON        CLEAR     50  46  87 CALM      30.18S
JOPLIN         CLEAR     52  48  86 S3        30.18R
WEST PLAINS    CLEAR     53  46  77 CALM      30.17R

$$

IAZ060-094-KSZ022-034>040-054-083-096-NEZ052-066-093-270400-
...KANSAS...SOUTHEAST NEBRASKA AND IOWA...

CITY           SKY/WX    TMP DP  RH WIND       PRES   REMARKS
TOPEKA         CLEAR     57  51  80 SW3       30.13S
MANHATTAN      CLEAR     57  50  77 CALM      30.13F
EMPORIA        CLEAR     55  48  77 SW7       30.16F
CHANUTE        CLEAR     55  51  86 CALM      30.17S
WICHITA        CLEAR     58  49  72 SW6       30.18F
OMAHA          CLEAR     60  48  64 CALM      30.08S
LINCOLN        CLEAR     59  46  62 W3        30.12R
FALLS CITY     CLEAR     60  47  61 SW7       30.08S
LAMONI         CLEAR     57  46  66 SW7       30.06F
DES MOINES     CLEAR     59  45  59 SW7       30.02F

$$





USA.gov is the U.S. government's official web portal to all federal, state and local government web resources and services.